Hourly Data Report for October 10, 2016

All times are specified in Local Standard Time (LST). Add 1 hour to adjust for Daylight Saving Time where and when it is observed.

BAKER LAKE A
NUNAVUT

64°17'56.000" N
96°04'40.000" W
18.60 m
2300503
71926
YBK

Download Data

Hourly Data (October 2016)
Hourly Data Report for October 10, 2016
Temp Definition
°C
Dew Point Temp Definition
°C
Rel Hum Definition
%
Wind Dir Definition
10's deg

Wind Spd Definition
km/h
Visibility Definition
km
Stn Press Definition
kPa
Hmdx Definition


Wind Chill Definition


Weather Definition


TIME
00:00 Legend Double Dagger -4.9 -6.0 92 29 16 24.1 101.91   -11 Mainly Clear
01:00 Legend Double Dagger -5.5 -6.7 91 28 18 24.1 101.86   -12 LegendNANA
02:00 Legend Double Dagger -5.1 -6.4 91 27 16 24.1 101.85   -11 LegendNANA
03:00 Legend Double Dagger -4.9 -6.3 90 27 19 24.1 101.84   -11 Mainly Clear
04:00 Legend Double Dagger -4.7 -6.4 88 29 21 24.1 101.78   -11 LegendNANA
05:00 Legend Double Dagger -5.2 -6.6 90 28 20 24.1 101.78   -12 LegendNANA
06:00 Legend Double Dagger -5.1 -6.1 93 27 16 24.1 101.73   -11 Mostly Cloudy
07:00 Legend Double Dagger -3.6 -5.5 87 28 15 32.2 101.70   -9 LegendNANA
08:00 Legend Double Dagger -3.5 -4.9 90 29 25 12.9 101.67   -10 Freezing Drizzle
09:00 Legend Double Dagger -3.8 -5.4 89 29 26 24.1 101.66   -11 Mostly Cloudy
10:00 Legend Double Dagger -3.8 -7.8 74 32 31 32.2 101.67   -12 LegendNANA
11:00 Legend Double Dagger -4.0 -8.0 74 31 32 32.2 101.66   -12 LegendNANA
12:00 Legend Double Dagger -4.2 -8.9 70 31 31 32.2 101.66   -12 Mostly Cloudy
13:00 Legend Double Dagger -3.6 -9.3 65 31 26 32.2 101.66   -11 LegendNANA
14:00 Legend Double Dagger -3.2 -8.9 65 29 21 32.2 101.65   -9 LegendNANA
15:00 Legend Double Dagger -2.0 -7.9 64 29 24 32.2 101.62   -8 Mostly Cloudy
16:00 Legend Double Dagger -3.0 -7.2 73 29 20 32.2 101.63   -9 LegendNANA
17:00 Legend Double Dagger -3.7 -7.2 77 29 21 24.1 101.63   -10 Snow
18:00 Legend Double Dagger -3.9 -6.4 83 26 14 24.1 101.63   -9 Snow
19:00 Legend Double Dagger -3.9 -5.9 86 28 15 32.2 101.59   -9 Snow
20:00 Legend Double Dagger -4.0 -6.2 85 28 12 24.1 101.57   -9 Snow
21:00 Legend Double Dagger -4.7 -6.7 86 28 9 24.1 101.54   -9 Snow
22:00 Legend Double Dagger -4.2 -6.8 82 25 13 24.1 101.49   -9 Snow
23:00 Legend Double Dagger -4.9 -6.9 86 26 26 24.1 101.44   -12 Snow

Notes on Data Quality.

Legend

  • E = Estimated
  • M = Missing
  • NA = Not Available
  • ‡ = Partner data that is not subject to review by the National Climate Archives
Date modified: